FW4495 Weather Reports


time (UTC)temp
C
wind
direction
speed
KPH
gust
KPH
rain 1hr
cm
rain 24hr
cm
rain mn
cm
humidity
%
barometer
mb
20260510191603 25 141 3.2 16.1 0.00 0.00 0.00 57 1013.4
20260510184606 25 173 6.4 14.5 0.00 0.00 0.00 55 1013.6
20260510183058 25 175 4.8 16.1 0.00 0.00 0.00 55 1013.6
20260510181608 24 119 6.4 12.9 0.00 0.00 0.00 57 1013.8
20260510180108 24 180 1.6 17.7 0.00 0.00 0.00 59 1013.9
20260510174554 24 142 6.4 14.5 0.00 0.00 0.00 59 1014.0
20260510173059 23 132 9.7 16.1 0.00 0.00 0.00 59 1013.9
20260510171558 23 160 8.0 17.7 0.00 0.00 0.00 63 1014.0
20260510170051 23 175 1.6 14.5 0.00 0.00 0.00 65 1014.1
20260510164559 23 122 4.8 16.1 0.00 0.00 0.00 69 1014.4
20260510163049 23 113 3.2 17.7 0.00 0.00 0.00 69 1014.5
20260510161548 23 167 8.0 17.7 0.00 0.00 0.00 67 1014.5
20260510160047 23 91 6.4 12.9 0.00 0.00 0.00 67 1014.4
20260510154553 25 164 4.8 14.5 0.00 0.00 0.00 55 1014.6
20260510153041 24 175 3.2 12.9 0.00 0.00 0.00 56 1014.4
20260510151544 24 9 4.8 9.7 0.00 0.00 0.00 56 1014.5
20260510150049 23 265 4.8 14.5 0.00 0.00 0.00 59 1014.3
20260510144537 23 232 4.8 11.3 0.00 0.00 0.00 56 1014.0
20260510143034 23 233 1.6 4.8 0.00 0.00 0.00 60 1013.9
20260510141528 22 249 3.2 8.0 0.00 0.00 0.00 63 1013.9
20260510140023 21 173 0.0 4.8 0.00 0.00 0.00 68 1014.0
20260510134520 21 172 0.0 6.4 0.00 0.00 0.00 71 1013.9
20260510133014 20 172 3.2 6.4 0.00 0.00 0.00 74 1014.0
20260510131511 19 244 1.6 4.8 0.00 0.00 0.00 78 1014.2
20260510130006 18 260 0.0 6.4 0.00 0.00 0.00 81 1014.5
20260510124501 17 317 0.0 4.8 0.00 0.00 0.00 84 1014.4
20260510123101 16 337 0.0 3.2 0.00 0.00 0.00 87 1014.4
20260510121553 15 337 3.2 6.4 0.00 0.00 0.00 89 1014.2
20260510120049 14 327 3.2 6.4 0.00 0.00 0.00 91 1014.2
20260510114551 13 291 1.6 6.4 0.00 0.00 0.00 92 1014.1
20260510113040 12 290 1.6 4.8 0.00 0.00 0.00 93 1013.9
20260510111538 12 229 0.0 1.6 0.00 0.00 0.00 94 1013.5
20260510110040 12 228 0.0 1.6 0.00 0.00 0.00 94 1012.9
20260510104527 11 228 0.0 1.6 0.00 0.00 0.00 94 1012.7
20260510103022 11 228 0.0 3.2 0.00 0.00 0.00 93 1012.8
20260510101519 11 228 1.6 4.8 0.00 0.00 0.00 93 1012.6
20260510100017 11 228 0.0 3.2 0.00 0.00 0.00 93 1012.5
20260510094534 11 228 0.0 3.2 0.00 0.00 0.00 93 1012.5
20260510093014 11 228 0.0 3.2 0.00 0.00 0.00 93 1012.5
20260510091513 11 228 0.0 3.2 0.00 0.00 0.00 93 1012.3
20260510090012 11 228 0.0 3.2 0.00 0.00 0.00 92 1012.2
20260510084517 11 228 0.0 4.8 0.00 0.00 0.00 92 1012.0
20260510083006 11 228 0.0 3.2 0.00 0.00 0.00 92 1011.7
20260510081505 11 228 1.6 3.2 0.00 0.00 0.00 93 1011.4
20260510080007 11 228 1.6 3.2 0.00 0.00 0.00 92 1011.3
20260510074601 12 228 0.0 3.2 0.00 0.00 0.00 92 1011.2
20260510073059 12 228 1.6 4.8 0.00 0.00 0.00 92 1011.0
20260510071600 12 225 0.0 1.6 0.00 0.00 0.00 92 1010.9
20260510070058 12 225 0.0 1.6 0.00 0.00 0.00 92 1010.9
20260510064604 12 190 0.0 0.0 0.00 0.00 0.00 92 1011.0
20260510063054 12 190 0.0 0.0 0.00 0.00 0.00 92 1010.9
20260510061558 12 190 0.0 0.0 0.00 0.00 0.00 92 1010.8
20260510060051 12 190 0.0 3.2 0.00 0.00 0.00 91 1010.7
20260510054550 12 190 0.0 1.6 0.00 0.00 0.00 91 1010.7
20260510053047 13 190 0.0 0.0 0.00 0.00 0.00 91 1011.0
20260510051557 13 190 0.0 3.2 0.00 0.00 0.00 91 1011.0
20260510050044 13 190 0.0 1.6 0.00 0.00 0.00 90 1011.0
20260510044547 13 190 0.0 1.6 0.00 0.00 0.00 89 1011.0
20260510043043 13 190 0.0 0.0 0.00 0.00 0.00 89 1011.1
20260510041542 13 190 0.0 3.2 0.00 0.00 0.00 89 1011.0
20260510040036 14 190 0.0 3.2 0.00 0.00 0.00 88 1011.0
20260510034536 14 190 0.0 1.6 0.00 0.00 0.00 88 1010.9
20260510033035 15 190 0.0 1.6 0.00 0.00 0.00 87 1010.8
20260510031536 15 190 0.0 3.2 0.00 0.00 0.00 86 1010.8
20260510030044 15 190 0.0 1.6 0.00 0.00 0.00 86 1010.7
20260510024533 15 190 0.0 1.6 0.00 0.00 0.00 85 1010.7
20260510023032 16 190 0.0 1.6 0.00 0.00 0.00 84 1010.8
20260510021534 16 190 0.0 3.2 0.00 0.00 0.00 83 1010.7
20260510020031 16 190 0.0 1.6 0.00 0.00 0.00 82 1010.5
20260510014532 16 190 0.0 3.2 0.00 0.00 0.00 81 1010.4
20260510013031 17 190 0.0 3.2 0.00 0.00 0.00 79 1010.3
20260510011531 17 190 0.0 3.2 0.00 0.00 0.00 78 1010.1
20260510010028 17 191 0.0 3.2 0.00 0.00 0.00 76 1010.1
20260510004528 18 191 0.0 4.8 0.00 0.00 0.00 75 1009.9
20260510003035 18 191 0.0 6.4 0.00 0.00 0.00 75 1009.6
20260510001526 18 182 1.6 8.0 0.00 0.00 0.00 74 1009.6
20260510000026 18 207 4.8 9.7 0.00 0.00 0.00 74 1009.4
20260509234531 18 252 1.6 11.3 0.00 0.00 0.00 74 1009.3
20260509233024 18 168 3.2 8.0 0.00 0.00 0.00 73 1009.3
20260509231524 19 180 1.6 11.3 0.00 0.00 0.00 71 1009.3
20260509230023 20 168 6.4 12.9 0.00 0.00 0.00 69 1009.2
20260509224522 20 146 3.2 11.3 0.00 0.00 0.00 69 1009.1
20260509223021 20 152 1.6 9.7 0.00 0.00 0.00 69 1009.3
20260509221521 20 150 3.2 8.0 0.00 0.00 0.00 69 1009.2
20260509220026 20 119 3.2 8.0 0.00 0.00 0.00 71 1009.2
20260509214521 20 107 3.2 8.0 0.00 0.00 0.00 71 1009.2
20260509213143 20 121 4.8 12.9 0.00 0.00 0.00 70 1009.2
20260509211518 21 99 4.8 11.3 0.00 0.00 0.00 68 1009.0
20260509210021 21 121 1.6 4.8 0.00 0.00 0.00 69 1008.9
20260509204520 20 119 3.2 11.3 0.00 0.00 0.00 69 1008.9
20260509203015 20 55 3.2 8.0 0.00 0.00 0.00 71 1009.1
20260509201514 20 116 1.6 8.0 0.00 0.00 0.00 72 1009.2
20260509200014 20 133 0.0 6.4 0.00 0.00 0.00 73 1009.4
20260509194516 20 133 0.0 6.4 0.00 0.00 0.00 71 1009.5
20260509193013 20 144 3.2 9.7 0.00 0.00 0.00 74 1009.6